Weather in Murcia

Spain     37°58′46″N   1°07′48″W
temp.,
°C
wind,
m/s
gust,
m/s
humid.,
%
clouds,
%
prec.,
mm/h
press.,
hPa
HPBL,
m
23 january, sat
sat2301:00+9sw455638 0.0 101778
04:00+8sw23630 0.0 101834
07:00+7ssw237113 0.0 101747
10:00+10wsw346097 0.0 1018196
13:00+13s234355 0.0 10171306
16:00+17nw2432100 0.0 10151610
19:00+12sw455189 0.0 101379
22:00+11ssw6106038 0.0 1012255
24 january, sun
sun2401:00+12sw7136147 0.0 1010297
04:00+13sw61066100 0.0 1007195
07:00+12ssw4472100 0.0 101148
10:00+13wnw31252100 0.0 10131076
13:00+17nw6734100 0.0 10131331
16:00+20wnw5630100 0.0 10131573
19:00+13wnw2453100 0.0 101480
22:00+12nnw2461100 0.0 101578
25 january, mon
mon2501:00+10wnw1267100 0.0 101732
04:00+12sw2268100 0.0 101426
07:00+8nnw1173100 0.0 101822
10:00+12nw115899 0.0 102067
13:00+20w6134994 0.0 10131883
16:00+20w91447100 0.0 10122076
19:00+12s346766 0.0 102180
22:00+10sw34823 0.0 102373
26 january, tue
tue2601:00+14wnw497060 0.0 1018239
04:00+13nw46720 0.0 1019104
07:00+8wnw12810 0.0 102324
10:00+13wnw11610 0.0 102484
13:00+20nw684720 0.0 1023926
16:00+19ssw12472 0.0 10221086
19:00+15wnw11671 0.0 102323
22:00+13w1173100 0.0 102523
27 january, wed
wed2701:00+12nw128061 0.0 102523
04:00+12wnw23810 0.0 102427
07:00+13nw237446 0.0 102428
10:00+14nw1272100 0.0 102627
13:00+21wnw245269 0.0 1025749
16:00+22wnw2447100 0.0 10241312
19:00+17nw336677 0.0 102452
22:00+14wnw237999 0.0 102582